Location: Kershaw
(34.5481°N, 80.5823°W)
Time: 13:47:49
(UTC+00:00)

Explorer 7 - Pass Details

Date: 09 October 2022
Orbit: 481 x 665 km, 50.3° (Epoch: 26 November)

Event Time Altitude Azimuth Distance (km) Brightness Sun altitude
Rises 21:34:09 0° 292° (WNW) 2,908 11.3 15.4°
Reaches altitude 10° 21:37:23 10° 269° (W) 1,958 11.4 14.8°
Maximum altitude 21:39:54 15° 235° (SW) 1,625 11.1 14.3°
Drops below altitude 10° 21:42:22 10° 200° (SSW) 1,884 10.2 13.8°
Sets 21:45:23 0° 176° (S) 2,732 10.6 13.3°
